This demonstration page uses our WeatherBlox Daily Observations layout. Learn more.

Left ArrowRight Arrow

41.55636, -103.73856

Hourly Observations for May 3, 2020

Temp ( °F °C ) Dew Point ( °F °C ) Humidity (%) Winds ( mph kmh ) Pressure ( in mb ) Visibility ( mi km ) Precip ( " mm )
12:58 am 00:58 Mostly Cloudy 50 10.2 49 9.4 95 95 SSE 18 30 30.03 1017 10 16 0.06 1.52
1:58 am 01:58 Mostly Cloudy 50 9.8 47 8.4 91 91 SSE 15 24 30.05 1018 10 16 N/A
2:58 am 02:58 Partly Cloudy 49 9.2 46 8 92 92 SSE 15 24 30.08 1019 10 16 N/A
3:58 am 03:58 Cloudy 49 9.6 47 8.3 92 92 SSE 10 17 30.11 1020 10 16 N/A
4:58 am 04:58 Cloudy 50 9.8 47 8.6 92 92 SSE 7 11 30.09 1019 10 16 N/A
5:58 am 05:58 Mostly Cloudy 50 10.2 48 9 92 92 SSE 6 9 30.08 1019 10 16 N/A
6:58 am 06:58 Mostly Cloudy 50 9.9 49 9.4 97 97 SSE 10 17 30.07 1018 10 16 N/A
7:58 am 07:58 Clear 50 10.1 47 8.4 89 89 SSW 21 33 30.02 1017 10 16 0.01 0.25
8:58 am 08:58 Clear 50 10.1 47 8.1 88 88 SSW 17 28 30.02 1017 10 16 N/A
9:58 am 09:58 Clear 49 9.7 45 7.4 86 86 SSW 23 37 30.01 1016 10 16 N/A
10:58 am 10:58 Clear 49 9.4 45 7.3 87 87 SSW 16 26 30.01 1016 10 16 N/A
11:58 am 11:58 Sunny 49 9.6 46 7.5 87 87 SSW 21 33 30.00 1016 10 16 N/A
12:58 pm 12:58 Sunny 49 9.7 45 7.4 86 86 SSW 18 30 30.00 1016 10 16 N/A
1:58 pm 13:58 Sunny 53 11.6 48 8.7 83 83 SSW 24 39 29.97 1015 10 16 N/A
2:59 pm 14:59 Sunny 57 14 50 10.2 78 78 SW 20 31 29.97 1015 10 16 N/A
3:58 pm 15:58 Sunny 61 16 51 10.7 71 71 SW 17 28 29.96 1015 10 16 N/A
4:58 pm 16:58 Sunny 65 18.2 51 10.7 62 62 SW 12 19 29.94 1014 10 16 N/A
5:58 pm 17:58 Mostly Sunny 67 19.4 48 9.1 52 52 N N/A 29.92 1013 10 16 N/A
6:58 pm 18:58 Mostly Cloudy 68 20 38 3.2 33 33 W 18 30 29.92 1013 10 16 N/A
7:58 pm 19:58 Mostly Sunny 69 20.6 36 2.3 30 30 W 20 31 29.88 1012 10 16 N/A
8:58 pm 20:58 Mostly Cloudy 71 21.4 39 3.8 32 32 WNW 15 24 29.88 1012 10 16 N/A
9:58 pm 21:58 Sunny 70 21 40 4.2 33 33 N N/A 29.86 1011 10 16 N/A
10:58 pm 22:58 Mostly Cloudy 68 20.2 42 5.3 38 38 WSW 8 13 29.86 1011 10 16 N/A
11:58 pm 23:58 Cloudy with Light Rain 64 17.8 43 6 46 46 SSW 21 33 29.90 1013 10 16 N/A

Powered by AerisWeather